This demonstration page uses our WeatherBlox Daily Observations layout. Learn more.

Left ArrowRight Arrow

39.29038, -76.61219

Hourly Observations for September 9, 2020

Temp ( °F °C ) Dew Point ( °F °C ) Humidity (%) Winds ( mph kmh ) Pressure ( in mb ) Visibility ( mi km ) Precip ( " mm )
12:54 am 00:54 Cloudy 74 23.3 69 20.6 85 85 E 3 6 30.17 1022 10 16 0.00 0.00
1:54 am 01:54 Cloudy 73 22.8 69 20.6 87 87 E 5 7 30.18 1022 10 16 0.00 0.00
2:54 am 02:54 Partly Cloudy 73 22.8 69 20.6 87 87 E 6 9 30.18 1022 10 16 0.00 0.00
3:54 am 03:54 Mostly Cloudy 72 22.2 69 20.6 91 91 E 3 6 30.18 1022 10 16 0.00 0.00
4:54 am 04:54 Cloudy 73 22.8 70 21.1 90 90 ENE 5 7 30.18 1022 10 16 0.00 0.00
5:32 am 05:32 Cloudy 73 22.8 70 21.1 90 90 ENE 6 9 30.18 1022 10 16 0.00 0.00
5:54 am 05:54 Cloudy 73 22.8 70 21.1 90 90 NE 3 6 30.19 1022 10 16 0.00 0.00
6:45 am 06:45 Cloudy 74 23.3 70 21.1 88 88 NE 3 6 30.19 1022 10 16 0.00 0.00
6:54 am 06:54 Cloudy 73 22.8 70 21.1 90 90 NNE 6 9 30.19 1022 10 16 0.00 0.00
7:48 am 07:48 Cloudy with Mist and Fog 73 23 70 21 89 89 NE 8 13 30.20 1023 6 10 0.00 0.00
7:54 am 07:54 Cloudy with Mist and Fog 74 23.3 70 21.1 88 88 NE 8 13 30.21 1023 6 10 0.00 0.00
8:09 am 08:09 Cloudy with Mist and Fog 75 23.9 71 21.7 88 88 NNE 6 9 30.22 1023 6 10 0.00 0.00
8:54 am 08:54 Cloudy with Mist and Fog 75 23.9 71 21.7 88 88 NE 7 11 30.24 1024 6 10 0.00 0.00
9:26 am 09:26 Cloudy with Haze 75 23.9 70 21.1 84 84 NE 6 9 30.24 1024 6 10 0.00 0.00
9:54 am 09:54 Cloudy with Haze 76 24.4 70 21.1 82 82 NNE 7 11 30.26 1025 6 10 0.00 0.00
10:54 am 10:54 Cloudy 76 24.4 70 21.1 82 82 NE 9 15 30.26 1025 7 11 0.00 0.00
11:54 am 11:54 Cloudy 78 25.6 70 21.1 76 76 NE 8 13 30.26 1025 7 11 0.00 0.00
12:54 pm 12:54 Cloudy 79 26.1 70 21.1 74 74 NE 10 17 30.24 1024 7 11 0.00 0.00
1:54 pm 13:54 Cloudy with Haze 77 25 72 22.2 85 85 ENE 7 11 30.25 1024 6 10 0.01 0.25
2:54 pm 14:54 Cloudy with Light Rain 78 25.6 71 21.7 79 79 NE 12 19 30.23 1024 6 10 0.00 0.00
3:54 pm 15:54 Mostly Cloudy 79 26.1 72 22.2 79 79 ENE 12 19 30.22 1023 10 16 0.01 0.25
4:54 pm 16:54 Mostly Cloudy 79 26.1 72 22.2 79 79 ENE 9 15 30.21 1023 10 16 0.00 0.00
5:29 pm 17:29 Mostly Cloudy 80 26.7 72 22.2 76 76 ENE 10 17 30.21 1023 10 16 0.00 0.00
5:54 pm 17:54 Mostly Cloudy 80 26.7 72 22.2 76 76 ENE 9 15 30.22 1023 10 16 0.00 0.00
6:54 pm 18:54 Mostly Cloudy 79 26.1 72 22.2 79 79 ENE 9 15 30.22 1024 10 16 0.00 0.00
7:54 pm 19:54 Cloudy with Light Rain 78 25.6 73 22.8 85 85 ENE 9 15 30.22 1024 9 14 0.01 0.25
8:28 pm 20:28 Cloudy 78 25.6 73 22.8 85 85 ENE 10 17 30.23 1024 10 16 0.00 0.00
8:54 pm 20:54 Cloudy 77 25 73 22.8 88 88 E 10 17 30.24 1024 10 16 0.00 0.00
9:28 pm 21:28 Cloudy 77 25 73 22.8 88 88 E 12 19 30.25 1024 10 16 0.00 0.00
9:54 pm 21:54 Cloudy 77 25 73 22.8 88 88 E 12 19 30.25 1024 10 16 0.00 0.00
10:07 pm 22:07 Cloudy 77 25 73 22.8 88 88 E 9 15 30.25 1024 10 16 0.00 0.00
10:16 pm 22:16 Cloudy with Light Rain 76 24.4 73 22.8 91 91 E 10 17 30.25 1024 10 16 0.00 0.00
10:35 pm 22:35 Cloudy 76 24.4 73 22.8 91 91 E 8 13 30.25 1024 10 16 0.00 0.00
10:54 pm 22:54 Cloudy 76 24.4 73 22.8 91 91 ENE 9 15 30.25 1024 10 16 0.00 0.00
11:54 pm 23:54 Cloudy 76 24.4 73 22.8 91 91 E 7 11 30.25 1024 10 16 0.00 0.00

Powered by AerisWeather